Shin-oh Maru — JG5594 — position and weather

sailwx.info

Track history (hours):
 
Tides and Currents Weather Stations Pressure Air Temp Water Temp Dewpoint Dewpoint Depression Visibility Wind Speed Wind Dir Waves Ship Positions

Shin-oh Maru

Last reported at 2014-Jul-22 19:31 UTC. Time now 2014-Jul-22 19:36 UTC.
Position N 35°34' E 139°54'.

Length 161 m; draft 7 m.

Type: Ship (hazmat cat A). MMSI: 431100859.

Date/timePositionNaut miles runAvg speedWind from/ knotsBaromVisibWave heightAir tempDewpointWater temp
2014-Jul-22 19:31N 35°34' E 139°54'0 0.0
2014-Jul-22 18:31N 35°34' E 139°54'0 0.0
2014-Jul-22 17:31N 35°34' E 139°54'0 0.0
2014-Jul-22 16:31N 35°34' E 139°54'0 0.0
2014-Jul-22 15:31N 35°34' E 139°54'0 0.0
2014-Jul-22 14:31N 35°34' E 139°54'0 0.0
2014-Jul-22 13:31N 35°34' E 139°54'0 0.0
2014-Jul-22 12:31N 35°34' E 139°54'0 0.0
2014-Jul-22 11:31N 35°34' E 139°54'0 0.0
2014-Jul-22 10:31N 35°34' E 139°54'0 0.0
2014-Jul-22 09:31N 35°34' E 139°54'0 0.0
2014-Jul-22 08:31N 35°34' E 139°54'0 0.0
2014-Jul-22 07:31N 35°34' E 139°54'0 0.0
2014-Jul-22 06:31N 35°34' E 139°54'0 0.0
2014-Jul-22 05:31N 35°34' E 139°54'0 0.0
2014-Jul-22 04:31N 35°34' E 139°54'0 0.0
2014-Jul-22 03:31N 35°34' E 139°54'0 0.0
2014-Jul-22 02:31N 35°34' E 139°54'0 0.0
2014-Jul-22 01:31N 35°34' E 139°54'0 0.0
2014-Jul-22 00:22N 35°34' E 139°54'0 0.0
2014-Jul-21 23:31N 35°34' E 139°54'0 0.0
2014-Jul-21 22:31N 35°34' E 139°54'0 0.0
2014-Jul-21 21:28N 35°34' E 139°54'0 0.0
2014-Jul-21 20:31N 35°34' E 139°54'0 0.0
2014-Jul-21 20:13N 35°34' E 139°54'0 0.0
2014-Jul-21 19:28N 35°34' E 139°54'0 0.1
2014-Jul-21 18:31N 35°34' E 139°54'0 0.1
2014-Jul-21 17:31N 35°34' E 139°54'0 0.0
2014-Jul-21 16:31N 35°34' E 139°54'0 0.0
2014-Jul-21 15:31N 35°34' E 139°54'0 0.0
2014-Jul-21 14:31N 35°34' E 139°54'0 0.0
2014-Jul-21 13:31N 35°34' E 139°54'0 0.0
2014-Jul-21 12:31N 35°34' E 139°54'0 0.0
2014-Jul-21 11:22N 35°34' E 139°54'0 0.0
2014-Jul-21 10:28N 35°34' E 139°54'0 0.0
2014-Jul-21 09:33N 35°34' E 139°54'1111.4
2014-Jul-21 08:34N 35°24' E 139°47'1111.1
2014-Jul-21 07:33N 35°13' E 139°47'1817.9
2014-Jul-21 06:33N 34°56' E 139°45'1716.6
2014-Jul-21 05:33N 34°56' E 140°05'2218.6
2014-Jul-21 04:23N 35°07' E 140°28'1717.7
2014-Jul-21 03:26N 35°20' E 140°41'1818.2
2014-Jul-21 02:27N 35°34' E 140°54'2418.7
2014-Jul-21 01:11N 35°56' E 141°06'11 0.2
2014-Jul-18 22:11N 36°06' E 141°09'1518.8
2014-Jul-18 21:24N 35°53' E 141°04'1618.3
2014-Jul-18 20:34N 35°38' E 140°57'1919.2
2014-Jul-18 19:34N 35°22' E 140°44'1919.4
2014-Jul-18 18:34N 35°07' E 140°29'1818.1
2014-Jul-18 17:34N 34°56' E 140°11'1817.8
2014-Jul-18 16:32N 34°50' E 139°50'1717.5
2014-Jul-18 15:33N 35°07' E 139°44'1414.3
2014-Jul-18 14:33N 35°21' E 139°42'1514.9
2014-Jul-18 13:33N 35°35' E 139°48'3 3.1
2014-Jul-18 12:33N 35°38' E 139°46'0 0.0
2014-Jul-18 11:31N 35°38' E 139°46'0 0.0
2014-Jul-18 10:28N 35°38' E 139°46'0 0.0
2014-Jul-18 09:31N 35°38' E 139°46'0 0.0
2014-Jul-18 08:34N 35°38' E 139°46'1110.6
2014-Jul-18 07:33N 35°28' E 139°50'1212.3
2014-Jul-18 06:33N 35°16' E 139°47'1615.6
2014-Jul-18 05:33N 35°00' E 139°43'1514.8
2014-Jul-18 04:33N 34°51' E 139°57'1918.7
2014-Jul-18 03:33N 35°00' E 140°17'1817.8
2014-Jul-18 02:33N 35°12' E 140°34'1918.3
2014-Jul-18 01:33N 35°26' E 140°48'3819.0
2014-Jul-17 23:33N 35°60' E 141°08'24 0.5
2014-Jul-15 23:15N 36°23' E 141°15'1619.4
2014-Jul-15 22:24N 36°07' E 141°10'1619.2
2014-Jul-15 21:34N 35°51' E 141°06'2418.5
2014-Jul-15 20:15N 35°30' E 140°52'1319.0
2014-Jul-15 19:33N 35°20' E 140°42'2019.6
2014-Jul-15 18:33N 35°04' E 140°26'2020.2
2014-Jul-15 17:33N 34°54' E 140°06'1716.9
2014-Jul-15 16:34N 34°53' E 139°45'1818.0
2014-Jul-15 15:33N 35°11' E 139°46'1414.0
2014-Jul-15 14:33N 35°25' E 139°43'1212.4
2014-Jul-15 13:33N 35°37' E 139°46'1 0.5
2014-Jul-15 12:33N 35°38' E 139°46'0 0.0
2014-Jul-15 11:16N 35°38' E 139°46'0 0.0
2014-Jul-15 10:33N 35°38' E 139°46'0 0.0
2014-Jul-15 09:33N 35°38' E 139°46'0 0.0
2014-Jul-15 08:30N 35°38' E 139°46'5 5.7
2014-Jul-15 07:33N 35°34' E 139°50'1414.3
2014-Jul-15 06:34N 35°20' E 139°44'1413.8
2014-Jul-15 05:33N 35°06' E 139°45'1714.3
2014-Jul-15 04:23N 34°52' E 139°56'1517.7
2014-Jul-15 03:33N 34°58' E 140°13'2117.4
2014-Jul-15 02:21N 35°10' E 140°34'1417.8
2014-Jul-15 01:33N 35°22' E 140°44'1919.0
2014-Jul-15 00:32N 35°37' E 140°58'2317.6
2014-Jul-14 23:15N 35°59' E 141°07'1319.1
2014-Jul-14 22:33N 36°12' E 141°11'59 1.3
2014-Jul-13 01:07N 37°09' E 141°31'1018.3
2014-Jul-13 00:33N 36°59' E 141°27'1818.1
2014-Jul-12 23:33N 36°41' E 141°21'1818.1
2014-Jul-12 22:33N 36°24' E 141°16'1818.4
2014-Jul-12 21:33N 36°06' E 141°11'1818.3
2014-Jul-12 20:33N 35°49' E 141°02'1818.2
2014-Jul-12 19:34N 35°32' E 140°54'  
Track history (hours):
 
Tides and Currents Weather Stations Pressure Air Temp Water Temp Dewpoint Dewpoint Depression Visibility Wind Speed Wind Dir Waves Ship Positions

Shin-oh Maru

Last reported at 2014-Jul-22 19:31 UTC. Time now 2014-Jul-22 19:36 UTC.
Position N 35°34' E 139°54'.

Length 161 m; draft 7 m.

Type: Ship (hazmat cat A). MMSI: 431100859.

Date/timePositionNaut miles runAvg speedWind from/ knotsBaromVisibWave heightAir tempDewpointWater temp
2014-Jul-22 19:31N 35°34' E 139°54'0 0.0
2014-Jul-22 18:31N 35°34' E 139°54'0 0.0
2014-Jul-22 17:31N 35°34' E 139°54'0 0.0
2014-Jul-22 16:31N 35°34' E 139°54'0 0.0
2014-Jul-22 15:31N 35°34' E 139°54'0 0.0
2014-Jul-22 14:31N 35°34' E 139°54'0 0.0
2014-Jul-22 13:31N 35°34' E 139°54'0 0.0
2014-Jul-22 12:31N 35°34' E 139°54'0 0.0
2014-Jul-22 11:31N 35°34' E 139°54'0 0.0
2014-Jul-22 10:31N 35°34' E 139°54'0 0.0
2014-Jul-22 09:31N 35°34' E 139°54'0 0.0
2014-Jul-22 08:31N 35°34' E 139°54'0 0.0
2014-Jul-22 07:31N 35°34' E 139°54'0 0.0
2014-Jul-22 06:31N 35°34' E 139°54'0 0.0
2014-Jul-22 05:31N 35°34' E 139°54'0 0.0
2014-Jul-22 04:31N 35°34' E 139°54'0 0.0
2014-Jul-22 03:31N 35°34' E 139°54'0 0.0
2014-Jul-22 02:31N 35°34' E 139°54'0 0.0
2014-Jul-22 01:31N 35°34' E 139°54'0 0.0
2014-Jul-22 00:22N 35°34' E 139°54'0 0.0
2014-Jul-21 23:31N 35°34' E 139°54'0 0.0
2014-Jul-21 22:31N 35°34' E 139°54'0 0.0
2014-Jul-21 21:28N 35°34' E 139°54'0 0.0
2014-Jul-21 20:31N 35°34' E 139°54'0 0.0
2014-Jul-21 20:13N 35°34' E 139°54'0 0.0
2014-Jul-21 19:28N 35°34' E 139°54'0 0.1
2014-Jul-21 18:31N 35°34' E 139°54'0 0.1
2014-Jul-21 17:31N 35°34' E 139°54'0 0.0
2014-Jul-21 16:31N 35°34' E 139°54'0 0.0
2014-Jul-21 15:31N 35°34' E 139°54'0 0.0
2014-Jul-21 14:31N 35°34' E 139°54'0 0.0
2014-Jul-21 13:31N 35°34' E 139°54'0 0.0
2014-Jul-21 12:31N 35°34' E 139°54'0 0.0
2014-Jul-21 11:22N 35°34' E 139°54'0 0.0
2014-Jul-21 10:28N 35°34' E 139°54'0 0.0
2014-Jul-21 09:33N 35°34' E 139°54'1111.4
2014-Jul-21 08:34N 35°24' E 139°47'1111.1
2014-Jul-21 07:33N 35°13' E 139°47'1817.9
2014-Jul-21 06:33N 34°56' E 139°45'1716.6
2014-Jul-21 05:33N 34°56' E 140°05'2218.6
2014-Jul-21 04:23N 35°07' E 140°28'1717.7
2014-Jul-21 03:26N 35°20' E 140°41'1818.2
2014-Jul-21 02:27N 35°34' E 140°54'2418.7
2014-Jul-21 01:11N 35°56' E 141°06'11 0.2
2014-Jul-18 22:11N 36°06' E 141°09'1518.8
2014-Jul-18 21:24N 35°53' E 141°04'1618.3
2014-Jul-18 20:34N 35°38' E 140°57'1919.2
2014-Jul-18 19:34N 35°22' E 140°44'1919.4
2014-Jul-18 18:34N 35°07' E 140°29'1818.1
2014-Jul-18 17:34N 34°56' E 140°11'1817.8
2014-Jul-18 16:32N 34°50' E 139°50'1717.5
2014-Jul-18 15:33N 35°07' E 139°44'1414.3
2014-Jul-18 14:33N 35°21' E 139°42'1514.9
2014-Jul-18 13:33N 35°35' E 139°48'3 3.1
2014-Jul-18 12:33N 35°38' E 139°46'0 0.0
2014-Jul-18 11:31N 35°38' E 139°46'0 0.0
2014-Jul-18 10:28N 35°38' E 139°46'0 0.0
2014-Jul-18 09:31N 35°38' E 139°46'0 0.0
2014-Jul-18 08:34N 35°38' E 139°46'1110.6
2014-Jul-18 07:33N 35°28' E 139°50'1212.3
2014-Jul-18 06:33N 35°16' E 139°47'1615.6
2014-Jul-18 05:33N 35°00' E 139°43'1514.8
2014-Jul-18 04:33N 34°51' E 139°57'1918.7
2014-Jul-18 03:33N 35°00' E 140°17'1817.8
2014-Jul-18 02:33N 35°12' E 140°34'1918.3
2014-Jul-18 01:33N 35°26' E 140°48'3819.0
2014-Jul-17 23:33N 35°60' E 141°08'24 0.5
2014-Jul-15 23:15N 36°23' E 141°15'1619.4
2014-Jul-15 22:24N 36°07' E 141°10'1619.2
2014-Jul-15 21:34N 35°51' E 141°06'2418.5
2014-Jul-15 20:15N 35°30' E 140°52'1319.0
2014-Jul-15 19:33N 35°20' E 140°42'2019.6
2014-Jul-15 18:33N 35°04' E 140°26'2020.2
2014-Jul-15 17:33N 34°54' E 140°06'1716.9
2014-Jul-15 16:34N 34°53' E 139°45'1818.0
2014-Jul-15 15:33N 35°11' E 139°46'1414.0
2014-Jul-15 14:33N 35°25' E 139°43'1212.4
2014-Jul-15 13:33N 35°37' E 139°46'1 0.5
2014-Jul-15 12:33N 35°38' E 139°46'0 0.0
2014-Jul-15 11:16N 35°38' E 139°46'0 0.0
2014-Jul-15 10:33N 35°38' E 139°46'0 0.0
2014-Jul-15 09:33N 35°38' E 139°46'0 0.0
2014-Jul-15 08:30N 35°38' E 139°46'5 5.7
2014-Jul-15 07:33N 35°34' E 139°50'1414.3
2014-Jul-15 06:34N 35°20' E 139°44'1413.8
2014-Jul-15 05:33N 35°06' E 139°45'1714.3
2014-Jul-15 04:23N 34°52' E 139°56'1517.7
2014-Jul-15 03:33N 34°58' E 140°13'2117.4
2014-Jul-15 02:21N 35°10' E 140°34'1417.8
2014-Jul-15 01:33N 35°22' E 140°44'1919.0
2014-Jul-15 00:32N 35°37' E 140°58'2317.6
2014-Jul-14 23:15N 35°59' E 141°07'1319.1
2014-Jul-14 22:33N 36°12' E 141°11'59 1.3
2014-Jul-13 01:07N 37°09' E 141°31'1018.3
2014-Jul-13 00:33N 36°59' E 141°27'1818.1
2014-Jul-12 23:33N 36°41' E 141°21'1818.1
2014-Jul-12 22:33N 36°24' E 141°16'1818.4
2014-Jul-12 21:33N 36°06' E 141°11'1818.3
2014-Jul-12 20:33N 35°49' E 141°02'1818.2
2014-Jul-12 19:34N 35°32' E 140°54'  

Dump ship's entire track history